Wind_Speed
79 78 74 71 66 58 53 50 47 42 38 38 33 24 19 19 18 15 12 8 7 10 11 11 20 20 23 25 26 27 26 23 31 35 41 46 48 43 44 40 39 30 26 26
76 78 79 75 68 64 56 51 49 48 41 35 28 26 23 19 21 17 14 8 2 8 9 7 15 19 21 23 20 23 26 29 29 29 35 38 45 46 52 47 42 37 33 28
77 83 83 79 72 68 60 56 49 47 42 38 33 28 24 26 26 24 19 14 2 6 6 5 9 17 19 21 21 21 20 25 25 29 32 34 38 41 43 50 45 38 35 31
80 83 83 80 76 72 65 56 53 50 44 42 37 36 30 33 30 30 20 17 7 2 3 6 1 8 16 19 20 19 17 21 23 14 25 27 31 35 38 46 50 39 36 33
81 82 83 80 77 75 65 56 51 52 51 47 45 38 36 29 34 33 26 21 12 7 5 3 1 3 9 15 16 18 17 16 19 20 19 22 27 29 33 39 42 44 39 35
79 82 84 83 81 79 74 69 64 58 52 56 51 43 42 43 37 37 31 26 20 12 12 9 5 5 5 10 10 11 14 14 12 16 16 18 19 21 27 30 34 35 39 37
73 80 82 85 84 80 78 76 68 63 58 59 60 51 46 47 43 42 39 32 23 20 19 13 8 8 6 8 9 8 7 12 11 14 13 14 16 18 20 26 26 30 30 35
78 80 79 82 84 85 82 77 72 71 59 59 59 56 55 45 50 38 35 38 32 33 35 28 15 12 9 11 9 7 1 6 10 12 12 10 12 15 16 19 24 21 24 27
78 87 91 88 91 91 87 80 77 75 73 61 59 58 54 60 51 52 53 50 45 42 39 33 25 21 16 13 10 4 4 4 6 8 7 8 8 12 14 17 17 17 16 19
75 77 81 87 91 91 89 84 81 80 80 73 71 61 64 57 55 58 59 52 45 43 39 33 28 26 28 27 20 19 12 10 6 4 3 4 6 4 14 14 14 12 13 15
72 74 80 84 86 89 89 88 85 84 83 84 72 61 63 70 54 57 50 50 53 45 43 40 38 31 30 32 30 26 20 19 18 12 12 8 1 4 1 6 10 10 10 11
76 74 77 82 85 89 92 93 89 88 86 85 80 69 70 75 65 53 53 47 41 43 49 53 40 37 37 36 34 32 24 24 24 25 17 17 17 15 9 10 4 6 9 11
74 75 77 81 88 88 93 93 92 91 91 86 89 66 77 70 62 46 37 48 42 43 45 46 47 46 45 37 36 33 28 34 31 28 27 29 20 19 13 7 8 6 6 9
77 79 80 86 88 90 93 94 95 97 94 92 94 87 70 66 57 43 38 31 36 42 47 51 50 52 47 42 40 30 32 33 28 21 24 28 23 18 12 11 8 7 7 12
75 83 87 84 90 89 90 96 98 100 97 97 98 88 79 82 65 61 39 39 41 36 39 42 51 54 48 44 36 33 30 25 26 25 23 25 16 23 17 12 12 12 15 15
70 82 83 81 86 90 94 98 101 97 102 103 105 94 84 80 72 71 60 48 63 56 41 40 54 60 60 53 45 33 29 33 39 31 29 33 31 24 25 18 20 17 19 20
63 71 82 86 86 90 96 97 96 99 98 103 106 105 95 88 79 63 51 54 62 79 56 49 54 58 59 59 54 46 46 39 37 49 52 52 56 49 42 43 30 26 26 28
63 69 77 86 90 92 93 94 96 98 99 96 103 99 103 98 86 78 73 65 57 45 62 75 57 55 60 58 58 56 66 65 59 56 52 55 53 49 50 53 48 41 37 40
58 65 70 77 88 89 92 93 99 98 99 99 91 90 98 100 98 91 87 74 79 48 46 31 58 53 48 54 52 58 63 71 73 72 71 69 67 68 62 59 56 52 52 50
56 64 66 70 77 87 91 96 99 96 99 99 92 92 97 103 101 100 93 94 69 55 47 47 56 65 64 61 59 61 66 74 75 71 72 71 72 73 67 63 60 55 52 49
53 59 62 67 71 74 89 95 96 96 99 95 95 93 98 102 103 104 103 107 103 73 53 61 78 82 74 68 68 74 83 81 78 77 75 76 76 75 71 68 66 60 56 57
44 54 65 69 63 72 82 89 91 95 101 99 94 92 94 98 104 105 110 108 112 115 92 81 77 87 88 80 83 80 85 90 85 81 77 69 68 68 72 69 66 67 61 62
42 58 69 70 69 71 74 82 88 92 99 102 95 97 92 96 99 106 108 112 116 117 120 121 114 80 90 88 72 74 87 92 89 91 87 84 78 70 67 65 69 71 64 63
30 50 60 64 75 79 76 72 80 90 97 100 100 94 72 91 97 96 102 104 112 117 118 118 118 111 105 98 97 93 89 98 89 92 94 93 92 88 84 83 82 80 82 77
23 25 47 68 78 77 78 76 76 81 89 95 97 89 95 94 95 98 102 102 102 107 115 117 119 121 123 120 112 108 107 102 113 110 104 98 97 98 98 99 99 98 94 88
27 24 28 39 68 74 76 81 80 82 87 91 94 98 99 101 103 102 97 96 102 103 106 110 115 119 121 121 120 113 110 109 107 114 114 110 108 106 98 96 97 94 100 93
Wind_Direction
212 208 205 208 209 207 207 210 209 211 214 218 211 210 227 234 218 231 240 242 6 35 64 62 66 66 61 65 66 56 52 45 39 46 41 46 47 44 50 55 60 65 69 74
209 208 204 206 207 207 207 207 208 211 213 212 209 219 228 212 213 231 214 232 294 51 71 60 58 71 65 61 66 63 54 51 50 41 39 42 51 48 48 52 57 63 65 69
207 208 204 202 204 207 205 207 204 210 214 203 202 215 213 220 205 219 213 226 246 50 99 96 55 66 61 60 53 57 55 55 55 44 42 44 49 51 48 49 56 61 64 64
205 207 204 201 202 204 202 204 205 204 209 202 203 208 217 207 210 214 210 218 248 2 114 150 23 46 57 49 52 60 60 57 50 51 32 42 49 48 50 52 52 58 61 65
204 204 204 201 201 204 197 198 209 202 203 203 203 195 194 210 206 211 203 228 233 257 292 217 194 93 56 41 44 52 69 59 66 59 45 45 54 45 47 56 55 56 58 58
203 204 203 201 200 201 198 196 201 193 202 199 205 197 197 200 206 211 206 219 224 245 268 232 222 244 283 30 27 45 62 69 62 51 47 45 45 46 49 50 61 55 64 59
200 203 203 204 200 197 197 201 203 191 197 205 205 209 214 215 214 213 217 218 216 243 256 247 230 236 296 320 13 359 87 84 66 66 50 47 46 45 50 54 61 60 60 62
199 198 201 204 204 200 196 197 200 198 189 206 207 206 218 216 219 212 209 217 235 242 249 251 247 235 262 296 311 340 87 108 90 63 64 59 53 44 46 52 52 66 67 63
202 201 198 202 203 200 194 196 199 199 197 194 202 207 209 219 220 227 234 239 242 246 244 240 248 248 253 274 269 312 305 113 82 72 68 67 68 59 44 40 47 49 67 56
205 203 203 204 205 200 196 193 198 197 201 196 202 210 209 218 229 237 239 237 238 240 229 233 243 245 256 260 270 264 266 263 237 304 51 87 86 75 47 39 37 43 57 56
208 208 204 209 206 204 199 196 198 199 202 204 203 207 208 212 215 222 224 233 243 237 235 244 255 236 246 256 264 271 261 255 254 249 268 288 138 128 46 16 9 10 26 18
209 207 210 208 208 206 202 201 198 201 203 206 206 205 205 213 218 224 231 233 230 234 242 250 244 238 249 258 262 270 271 272 261 259 260 271 269 282 278 317 324 348 350 2
213 209 208 208 209 207 206 205 202 203 206 206 206 205 209 213 218 223 218 225 229 236 237 246 241 238 252 250 257 264 269 268 276 254 256 258 257 268 265 302 295 288 317 324
212 210 212 208 210 208 206 207 208 205 206 206 205 207 203 202 193 199 212 223 238 239 233 238 243 240 245 245 249 260 259 258 263 236 256 252 254 257 263 297 286 281 301 311
213 211 212 210 210 210 209 209 209 210 207 208 206 205 209 203 197 203 210 228 245 241 256 257 238 236 240 244 244 258 249 252 223 226 213 221 260 213 241 284 267 288 286 295
214 215 214 213 212 212 211 213 211 211 213 211 206 198 197 199 202 209 217 225 237 241 252 252 232 240 246 246 246 237 242 233 218 209 217 260 253 245 255 275 247 271 284 275
213 215 215 211 215 213 215 214 213 214 215 219 214 206 201 206 204 200 203 227 239 235 234 246 246 251 253 242 242 225 228 226 230 239 249 257 257 254 255 259 245 250 265 267
209 212 212 212 214 214 214 216 217 215 215 221 221 212 212 216 212 209 196 207 214 224 234 230 237 241 249 243 238 235 236 234 238 241 245 248 247 245 263 257 255 245 243 256
210 215 213 212 213 215 215 216 217 217 217 220 222 217 215 219 219 218 216 215 221 214 208 222 218 230 231 237 235 235 237 233 234 241 242 245 248 255 262 257 261 259 254 264
206 208 212 214 215 214 216 218 218 217 220 220 221 219 214 217 222 219 218 216 221 222 223 214 214 219 219 229 236 238 241 239 242 243 243 243 246 249 251 250 259 260 264 264
206 208 209 212 213 215 217 218 219 218 221 221 223 222 219 220 220 223 221 220 215 220 219 223 217 219 222 226 230 234 236 236 240 243 243 246 246 251 252 250 254 258 257 258
204 202 206 207 209 214 219 217 217 219 221 220 222 224 221 221 221 223 225 223 225 224 219 223 229 220 225 233 234 234 236 236 238 236 237 241 246 247 249 247 248 246 252 252
212 208 210 202 207 212 219 220 220 221 223 223 218 225 224 223 222 225 226 226 226 227 232 230 231 227 227 231 237 244 235 236 241 239 236 237 236 239 237 244 244 244 247 248
222 213 213 202 207 213 215 220 222 223 225 225 224 222 220 226 224 224 228 228 230 231 232 235 237 234 235 236 238 239 246 241 234 237 239 240 238 239 243 240 244 245 253 257
227 218 218 208 213 214 216 220 225 227 231 231 228 226 225 227 226 226 226 229 232 233 233 233 235 239 239 242 245 248 250 249 241 240 240 246 243 244 244 245 247 253 256 257
236 236 225 222 223 222 219 220 223 229 231 232 233 230 229 230 231 229 227 229 232 236 237 236 236 237 240 241 242 244 246 244 242 243 245 246 248 245 246 248 250 254 253 253
Height
10872 10894 10912 10923 10937 10948 10956 10963 10972 10978 10983 10989 10993 10997 11001 11005 11009 11014 11018 11021 11023 11023 11022 11023 11020 11017 11016 11015 11012 11010 11008 11006 11001 10998 10997 10995 10992 10985 10983 10980 10976 10972 10971 10972
10866 10882 10895 10911 10929 10936 10949 10959 10965 10970 10976 10984 10988 10993 10997 11001 11007 11012 11015 11020 11023 11024 11024 11025 11023 11021 11020 11020 11017 11015 11015 11010 11006 11004 11002 11001 10999 10994 10989 10986 10984 10980 10976 10975
10850 10859 10878 10897 10914 10928 10941 10947 10959 10966 10972 10980 10984 10989 10993 10998 11003 11008 11012 11017 11022 11024 11025 11026 11025 11023 11022 11023 11022 11019 11017 11015 11010 11007 11006 11006 11004 11001 10998 10992 10990 10989 10987 10984
10830 10849 10870 10889 10903 10916 10932 10944 10953 10958 10966 10974 10979 10984 10987 10992 10999 11004 11010 11014 11020 11022 11024 11026 11026 11026 11025 11026 11025 11025 11021 11018 11015 11010 11013 11011 11009 11008 11007 11003 11000 10998 10997 10996
10818 10838 10859 10879 10893 10906 10928 10937 10936 10950 10958 10967 10973 10977 10981 10988 10993 11000 11006 11011 11016 11020 11024 11025 11025 11027 11027 11027 11028 11029 11027 11022 11022 11021 11018 11015 11014 11013 11011 11010 11009 11007 11005 11003
10814 10829 10847 10864 10878 10895 10915 10918 10926 10942 10950 10959 10965 10970 10975 10981 10986 10992 10999 11005 11011 11016 11022 11024 11026 11026 11027 11029 11031 11032 11030 11026 11025 11024 11021 11019 11018 11017 11016 11015 11013 11015 11013 11012
10805 10822 10838 10850 10867 10887 10899 10909 10922 10934 10942 10951 10957 10964 10968 10972 10980 10984 10992 10999 11006 11011 11017 11023 11025 11026 11029 11030 11031 11031 11033 11032 11029 11025 11024 11023 11021 11020 11020 11019 11017 11019 11019 11017
10792 10807 10826 10838 10857 10869 10885 10899 10912 10922 10933 10942 10948 10954 10961 10966 10972 10981 10985 10993 11001 11007 11012 11018 11024 11026 11027 11030 11031 11032 11031 11031 11031 11030 11027 11026 11025 11024 11022 11021 11021 11022 11024 11022
10776 10789 10792 10815 10828 10846 10873 10890 10897 10912 10927 10930 10937 10945 10955 10957 10964 10972 10979 10986 10993 11002 11006 11012 11019 11023 11024 11027 11029 11030 11032 11030 11031 11030 11028 11027 11025 11023 11023 11023 11022 11026 11027 11025
10777 10790 10808 10810 10820 10843 10861 10872 10882 10898 10905 10911 10923 10934 10942 10952 10956 10963 10972 10979 10985 10995 11001 11007 11015 11017 11019 11023 11026 11028 11030 11032 11031 11031 11031 11029 11027 11026 11025 11025 11026 11028 11029 11029
10771 10784 10797 10804 10823 10839 10853 10863 10873 10885 10894 10904 10913 10921 10937 10938 10942 10954 10963 10974 10982 10988 10995 11000 11008 11014 11016 11019 11023 11025 11026 11028 11029 11029 11031 11033 11033 11031 11030 11031 11031 11030 11028 11029
10755 10774 10786 10801 10811 10825 10840 10848 10858 10871 10877 10892 10903 10913 10920 10927 10938 10950 10960 10966 10972 10980 10986 10992 11000 11006 11010 11013 11017 11020 11023 11024 11026 11028 11028 11028 11030 11032 11032 11031 11030 11030 11030 11030
10754 10760 10771 10782 10793 10812 10826 10839 10851 10856 10863 10882 10891 10902 10913 10924 10939 10946 10946 10953 10962 10973 10977 10984 10991 10997 11002 11009 11011 11015 11015 11015 11017 11020 11023 11025 11026 11027 11028 11029 11028 11028 11028 11028
10734 10746 10754 10765 10779 10797 10811 10826 10836 10840 10851 10865 10879 10890 10903 10921 10930 10938 10948 10947 10950 10957 10966 10975 10979 10987 10992 10999 11005 11010 11009 11008 11011 11012 11015 11020 11021 11023 11025 11024 11025 11025 11024 11025
10715 10727 10732 10756 10766 10786 10800 10809 10811 10823 10840 10848 10858 10875 10894 10908 10919 10927 10935 10942 10950 10955 10960 10965 10968 10973 10983 10989 10997 10999 10998 10999 11003 11004 11008 11012 11014 11015 11019 11021 11024 11022 11023 11023
10698 10709 10730 10750 10760 10771 10779 10783 10799 10815 10819 10830 10839 10864 10881 10900 10911 10923 10933 10939 10945 10949 10948 10953 10960 10965 10971 10979 10984 10990 10990 10992 10995 10998 10999 11005 11007 11011 11013 11015 11018 11016 11017 11019
10686 10699 10715 10728 10741 10753 10756 10775 10796 10807 10825 10817 10838 10859 10877 10885 10897 10916 10934 10948 10932 10929 10941 10942 10948 10956 10964 10969 10974 10980 10981 10981 10983 10986 10992 10997 11000 11001 11005 11009 11010 11009 11012 11013
10670 10678 10693 10710 10720 10731 10751 10764 10779 10791 10804 10807 10825 10863 10873 10880 10891 10904 10919 10913 10909 10910 10923 10937 10936 10938 10948 10954 10959 10967 10967 10969 10971 10975 10980 10985 10988 10990 10992 10996 10999 11000 11001 11002
10667 10676 10683 10695 10705 10721 10732 10745 10752 10773 10784 10794 10812 10846 10861 10864 10872 10887 10893 10894 10899 10898 10907 10912 10924 10931 10935 10940 10944 10949 10953 10956 10958 10962 10966 10971 10976 10979 10981 10982 10986 10988 10990 10992
10650 10659 10674 10685 10697 10706 10714 10725 10737 10755 10765 10778 10795 10818 10830 10837 10847 10864 10868 10878 10884 10885 10890 10897 10904 10912 10917 10921 10929 10939 10939 10940 10943 10946 10948 10953 10958 10962 10966 10969 10971 10974 10976 10978
10638 10652 10666 10673 10684 10696 10701 10708 10725 10738 10749 10767 10775 10788 10810 10822 10829 10835 10845 10853 10855 10865 10873 10880 10886 10893 10898 10903 10908 10914 10916 10920 10924 10927 10932 10935 10940 10945 10949 10954 10956 10958 10960 10964
10635 10642 10642 10664 10678 10680 10682 10700 10706 10714 10722 10744 10757 10768 10791 10800 10813 10817 10824 10838 10841 10847 10853 10861 10868 10873 10880 10887 10889 10893 10896 10898 10907 10908 10915 10919 10921 10925 10932 10937 10941 10943 10945 10946
10628 10631 10637 10653 10661 10665 10675 10685 10696 10702 10708 10722 10746 10755 10768 10782 10793 10797 10803 10813 10819 10827 10830 10840 10850 10854 10859 10863 10868 10874 10879 10883 10889 10889 10897 10903 10909 10910 10915 10921 10921 10926 10928 10930
10623 10628 10635 10647 10646 10650 10663 10674 10681 10684 10692 10706 10728 10744 10752 10761 10774 10780 10785 10792 10797 10803 10810 10814 10822 10834 10839 10843 10847 10852 10857 10864 10868 10871 10878 10884 10890 10894 10899 10903 10905 10908 10914 10915
10618 10625 10631 10638 10636 10643 10657 10661 10671 10676 10682 10691 10709 10730 10738 10738 10746 10758 10768 10772 10777 10783 10790 10799 10804 10807 10815 10820 10824 10829 10834 10840 10846 10851 10856 10862 10867 10871 10875 10879 10883 10887 10892 10897
10614 10619 10625 10630 10638 10640 10643 10651 10661 10664 10668 10674 10687 10705 10713 10718 10726 10739 10749 10756 10760 10764 10769 10774 10780 10784 10791 10797 10803 10808 10812 10818 10823 10825 10831 10837 10844 10850 10852 10853 10858 10864 10870 10873